Location: Caltech
(34.1382°N, 118.1253°W)
Time: 18:51:04
(UTC-07:00)

Cosmos 1697 Rocket - Visible Passes

Search period start: 22 July 2014 00:00
Search period end: 01 August 2014 00:00
Orbit: 831 x 845 km, 71.0° (Epoch: 21 July)

Date Brightness Start Highest point End Pass type
(mag) Time Alt. Az. Time Alt. Az. Time Alt. Az.
22 Jul 4.4 22:00:41 10° NW 22:05:18 26° WSW 22:09:27 12° SSW visible
23 Jul 4.3 21:44:31 10° NW 21:49:17 29° WSW 21:54:01 10° SSW visible
24 Jul 4.3 21:28:22 10° NW 21:33:16 31° WSW 21:38:07 10° SSW visible
25 Jul 4.2 21:12:14 10° NW 21:17:15 34° WSW 21:22:13 10° SSW visible
26 Jul 4.1 20:56:06 10° NW 21:01:13 36° WSW 21:06:18 10° S visible
27 Jul 4.0 20:39:59 10° NW 20:45:12 40° WSW 20:50:23 10° S visible
28 Jul 3.9 20:23:53 10° NW 20:29:11 43° WSW 20:34:26 10° S visible
